FALCON 9 DEB (45719 NORAD) Tracking and Keplerian Element Data

This shows tracking and keplerian element data for the satellite.

Feedback or suggestion? Click here.




ElementValue
Catalog45719
NameFALCON 9 DEB
Epoch Orbit546
Epoch Day189.91479013
Epoch Year2020
RAAN353.7782
Inclination52.9883
Eccentricity0.000989
Argument of Perigee236.1021
Mean Anonmoly123.909
Mean Motion16.50958719
Decay Rate0.12264177
L11 45719U 20035BQ 20189.91479013 .12264177 12578-4 11022-3 0 9996
L22 45719 52.9883 353.7782 0009890 236.1021 123.9090 16.50958719 5469

Live tracking and technical data element details for FALCON 9 DEB (NORAD 45719). FALCON 9 DEB can be tracked NOW for your location showing map with azimuth and elevation plus other details from your city location.

Track the satellite on the map from your city or location and see movement details for azimuth, elevation, latitude, longitude, range, height, and movement on the map or in text.







IsCatalogInMostPopularTable: catalog: 45719, numindb: 14
Update: records affected: 1



GetName: 45719 FALCON 9 DEB

Hit Count: updated at: Fri, 07 Aug 2020 23:52:49 GMT